| time (UTC) | temp C | wind direction | speed KPH | gust KPH | rain 1hr cm | rain 24hr cm | rain mn cm | humidity % | barometer mb |
| 20260504130700 | 14 | 236 | 6.4 | 16.1 | 0.00 | 0.00 | 0.00 | 62 | 1014.1 |
| 20260504110659 | 8 | 0 | 0.0 | 3.2 | 0.00 | 0.00 | 0.00 | 78 | 1014.5 |
| 20260504080700 | 7 | 0 | 0.0 | 1.6 | 0.00 | 0.00 | 0.00 | 68 | 1014.5 |
| 20260504050659 | 7 | 0 | 0.0 | 3.2 | 0.00 | 0.00 | 0.00 | 56 | 1014.5 |
| 20260504045159 | 8 | 0 | 0.0 | 0.0 | 0.00 | 0.00 | 0.00 | 54 | 1014.5 |
| 20260504043659 | 8 | 0 | 0.0 | 0.0 | 0.00 | 0.00 | 0.00 | 54 | 1014.5 |
| 20260504042159 | 8 | 0 | 0.0 | 4.8 | 0.00 | 0.00 | 0.00 | 55 | 1014.3 |
| 20260504040700 | 8 | 0 | 0.0 | 0.0 | 0.00 | 0.00 | 0.00 | 56 | 1014.2 |
| 20260504035200 | 8 | 0 | 0.0 | 0.0 | 0.00 | 0.00 | 0.00 | 54 | 1014.1 |
| 20260504033659 | 7 | 0 | 0.0 | 0.0 | 0.00 | 0.00 | 0.00 | 55 | 1014.1 |
| 20260504032159 | 7 | 0 | 0.0 | 0.0 | 0.00 | 0.00 | 0.00 | 57 | 1014.0 |
| 20260504030659 | 8 | 0 | 0.0 | 0.0 | 0.00 | 0.00 | 0.00 | 56 | 1013.9 |
| 20260504025159 | 8 | 0 | 0.0 | 0.0 | 0.00 | 0.00 | 0.00 | 54 | 1014.0 |
| 20260504023700 | 8 | 0 | 0.0 | 0.0 | 0.00 | 0.00 | 0.00 | 53 | 1014.0 |
| 20260504022200 | 8 | 0 | 0.0 | 0.0 | 0.00 | 0.00 | 0.00 | 52 | 1014.0 |
| 20260504020659 | 8 | 0 | 0.0 | 0.0 | 0.00 | 0.00 | 0.00 | 53 | 1014.0 |
| 20260504015159 | 8 | 0 | 0.0 | 0.0 | 0.00 | 0.00 | 0.00 | 53 | 1013.9 |
| 20260504013659 | 9 | 0 | 0.0 | 0.0 | 0.00 | 0.00 | 0.00 | 51 | 1013.9 |
| 20260504012159 | 10 | 0 | 0.0 | 0.0 | 0.00 | 0.00 | 0.00 | 51 | 1013.7 |
| 20260504010659 | 10 | 0 | 0.0 | 0.0 | 0.00 | 0.00 | 0.00 | 48 | 1013.5 |
| 20260504005159 | 11 | 0 | 0.0 | 0.0 | 0.00 | 0.00 | 0.00 | 44 | 1013.3 |
| 20260504003659 | 11 | 0 | 0.0 | 0.0 | 0.00 | 0.00 | 0.00 | 43 | 1013.2 |
| 20260504002159 | 12 | 0 | 0.0 | 0.0 | 0.00 | 0.00 | 0.00 | 41 | 1012.8 |
| 20260503235159 | 13 | 0 | 0.0 | 3.2 | 0.00 | 0.00 | 0.00 | 39 | 1012.7 |
| 20260503233659 | 13 | 278 | 3.2 | 11.3 | 0.00 | 0.00 | 0.00 | 38 | 1012.4 |
| 20260503232159 | 13 | 298 | 4.8 | 17.7 | 0.00 | 0.00 | 0.00 | 38 | 1012.4 |
| 20260503230659 | 14 | 278 | 3.2 | 16.1 | 0.00 | 0.00 | 0.00 | 37 | 1012.3 |
| 20260503225159 | 14 | 0 | 0.0 | 19.3 | 0.00 | 0.00 | 0.00 | 36 | 1012.2 |
| 20260503223659 | 15 | 274 | 3.2 | 22.5 | 0.00 | 0.00 | 0.00 | 36 | 1012.2 |
| 20260503222159 | 15 | 307 | 9.7 | 20.9 | 0.00 | 0.00 | 0.00 | 36 | 1012.2 |
| 20260503220659 | 15 | 323 | 14.5 | 22.5 | 0.00 | 0.00 | 0.00 | 36 | 1012.3 |
| 20260503215158 | 15 | 280 | 8.0 | 24.1 | 0.00 | 0.00 | 0.00 | 35 | 1012.3 |
| 20260503213659 | 15 | 273 | 11.3 | 27.4 | 0.00 | 0.00 | 0.00 | 36 | 1012.3 |
| 20260503212159 | 15 | 324 | 19.3 | 37.0 | 0.00 | 0.00 | 0.00 | 35 | 1012.2 |
| 20260503210659 | 15 | 321 | 9.7 | 38.6 | 0.00 | 0.00 | 0.00 | 34 | 1012.2 |
| 20260503205159 | 15 | 326 | 12.9 | 27.4 | 0.00 | 0.00 | 0.00 | 35 | 1012.2 |
| 20260503203659 | 15 | 302 | 16.1 | 33.8 | 0.00 | 0.00 | 0.00 | 37 | 1012.5 |
| 20260503202159 | 14 | 310 | 14.5 | 25.7 | 0.00 | 0.00 | 0.00 | 37 | 1012.6 |
| 20260503200659 | 14 | 312 | 14.5 | 30.6 | 0.00 | 0.00 | 0.00 | 37 | 1012.7 |
| 20260503195159 | 14 | 280 | 19.3 | 30.6 | 0.00 | 0.00 | 0.00 | 38 | 1012.8 |
| 20260503193659 | 13 | 329 | 20.9 | 33.8 | 0.00 | 0.00 | 0.00 | 37 | 1012.8 |
| 20260503192159 | 13 | 282 | 6.4 | 16.1 | 0.00 | 0.00 | 0.00 | 38 | 1013.0 |
| 20260503190659 | 13 | 297 | 12.9 | 27.4 | 0.00 | 0.00 | 0.00 | 37 | 1013.1 |
| 20260503185159 | 13 | 287 | 17.7 | 29.0 | 0.00 | 0.00 | 0.00 | 37 | 1013.1 |
| 20260503183659 | 13 | 264 | 17.7 | 27.4 | 0.00 | 0.00 | 0.00 | 38 | 1013.3 |
| 20260503182159 | 13 | 275 | 6.4 | 24.1 | 0.00 | 0.00 | 0.00 | 39 | 1013.4 |
| 20260503180700 | 13 | 278 | 6.4 | 17.7 | 0.00 | 0.00 | 0.00 | 42 | 1013.5 |
| 20260503175159 | 13 | 282 | 6.4 | 22.5 | 0.00 | 0.00 | 0.00 | 41 | 1013.5 |
| 20260503173659 | 12 | 254 | 16.1 | 33.8 | 0.00 | 0.00 | 0.00 | 39 | 1013.6 |
| 20260503172159 | 12 | 251 | 11.3 | 29.0 | 0.00 | 0.00 | 0.00 | 41 | 1013.7 |
| 20260503170659 | 12 | 266 | 3.2 | 25.7 | 0.00 | 0.00 | 0.00 | 40 | 1013.8 |
| 20260503150659 | 9 | 308 | 12.9 | 29.0 | 0.00 | 0.00 | 0.00 | 47 | 1014.5 |